| time (UTC) | temp F | wind direction | speed knots | gust knots | rain 1hr in | rain 24hr in | rain mn in | humidity % | barometer mb |
| 20260510054504 | 76 | 148 | 0.9 | 6.1 | 0.00 | 0.00 | 0.00 | 90 | 1012.3 |
| 20260510053000 | 76 | 149 | 2.6 | 7.0 | 0.00 | 0.00 | 0.00 | 90 | 1012.3 |
| 20260510051608 | 76 | 148 | 1.7 | 7.0 | 0.00 | 0.00 | 0.00 | 90 | 1012.4 |
| 20260510050108 | 76 | 137 | 1.7 | 7.0 | 0.00 | 0.00 | 0.00 | 90 | 1012.7 |
| 20260510044555 | 76 | 149 | 0.9 | 7.8 | 0.00 | 0.00 | 0.00 | 91 | 1012.7 |
| 20260510043055 | 77 | 142 | 0.9 | 7.0 | 0.00 | 0.00 | 0.00 | 91 | 1013.0 |
| 20260510041554 | 77 | 107 | 0.9 | 5.2 | 0.00 | 0.00 | 0.00 | 90 | 1013.2 |
| 20260510034552 | 77 | 140 | 0.9 | 4.3 | 0.00 | 0.00 | 0.00 | 90 | 1012.9 |
| 20260510033056 | 77 | 131 | 1.7 | 6.1 | 0.00 | 0.00 | 0.00 | 90 | 1012.5 |
| 20260510031552 | 77 | 118 | 1.7 | 6.1 | 0.00 | 0.00 | 0.00 | 90 | 1012.8 |
| 20260510030049 | 78 | 131 | 0.9 | 7.8 | 0.00 | 0.00 | 0.00 | 90 | 1012.8 |
| 20260510024548 | 78 | 111 | 0.9 | 5.2 | 0.00 | 0.00 | 0.00 | 90 | 1012.4 |
| 20260510023046 | 78 | 142 | 0.0 | 3.5 | 0.00 | 0.00 | 0.00 | 89 | 1012.3 |
| 20260510021635 | 78 | 99 | 0.0 | 6.1 | 0.00 | 0.00 | 0.00 | 89 | 1011.8 |
| 20260510020043 | 79 | 134 | 1.7 | 3.5 | 0.00 | 0.00 | 0.00 | 89 | 1011.4 |
| 20260510014553 | 80 | 121 | 0.9 | 7.8 | 0.00 | 0.00 | 0.00 | 87 | 1010.9 |
| 20260510013048 | 80 | 149 | 0.0 | 1.7 | 0.00 | 0.00 | 0.00 | 84 | 1010.7 |
| 20260510011541 | 80 | 148 | 2.6 | 6.1 | 0.00 | 0.00 | 0.00 | 82 | 1010.1 |
| 20260510010049 | 81 | 159 | 2.6 | 8.7 | 0.00 | 0.00 | 0.00 | 79 | 1009.8 |
| 20260510004539 | 82 | 153 | 3.5 | 6.1 | 0.00 | 0.00 | 0.00 | 81 | 1009.8 |
| 20260510003040 | 83 | 142 | 2.6 | 6.1 | 0.00 | 0.00 | 0.00 | 80 | 1009.7 |
| 20260510001538 | 84 | 142 | 1.7 | 6.1 | 0.00 | 0.00 | 0.00 | 78 | 1009.7 |
| 20260510000037 | 86 | 132 | 0.9 | 4.3 | 0.00 | 0.00 | 0.00 | 72 | 1009.3 |
| 20260509234536 | 87 | 135 | 1.7 | 7.8 | 0.00 | 0.00 | 0.00 | 67 | 1009.2 |
| 20260509233036 | 88 | 129 | 2.6 | 7.0 | 0.00 | 0.00 | 0.00 | 69 | 1009.2 |
| 20260509231534 | 88 | 174 | 1.7 | 7.0 | 0.00 | 0.00 | 0.00 | 69 | 1009.3 |
| 20260509230039 | 89 | 134 | 1.7 | 6.1 | 0.00 | 0.00 | 0.00 | 71 | 1009.1 |
| 20260509224534 | 90 | 92 | 0.9 | 7.0 | 0.00 | 0.00 | 0.00 | 71 | 1009.0 |
| 20260509223037 | 90 | 138 | 0.0 | 4.3 | 0.00 | 0.00 | 0.00 | 72 | 1009.0 |
| 20260509221531 | 90 | 124 | 0.9 | 3.5 | 0.00 | 0.00 | 0.00 | 72 | 1008.9 |
| 20260509220029 | 90 | 292 | 0.0 | 2.6 | 0.00 | 0.00 | 0.00 | 73 | 1008.8 |
| 20260509214529 | 89 | 137 | 0.0 | 3.5 | 0.00 | 0.00 | 0.00 | 72 | 1008.9 |
| 20260509213031 | 89 | 140 | 0.9 | 4.3 | 0.00 | 0.00 | 0.00 | 73 | 1008.8 |
| 20260509211527 | 89 | 210 | 0.9 | 3.5 | 0.00 | 0.00 | 0.00 | 75 | 1008.9 |
| 20260509210026 | 90 | 130 | 0.0 | 2.6 | 0.00 | 0.00 | 0.00 | 74 | 1008.8 |
| 20260509204525 | 89 | 131 | 0.0 | 6.1 | 0.00 | 0.00 | 0.00 | 74 | 1009.0 |
| 20260509203025 | 89 | 138 | 0.9 | 2.6 | 0.00 | 0.00 | 0.00 | 74 | 1009.0 |
| 20260509201521 | 88 | 138 | 0.9 | 2.6 | 0.00 | 0.00 | 0.00 | 78 | 1009.2 |
| 20260509200019 | 88 | 225 | 0.9 | 3.5 | 0.00 | 0.00 | 0.00 | 78 | 1009.5 |
| 20260509194530 | 87 | 213 | 0.9 | 3.5 | 0.00 | 0.00 | 0.00 | 78 | 1009.6 |
| 20260509193022 | 88 | 225 | 0.0 | 3.5 | 0.00 | 0.00 | 0.00 | 77 | 1009.6 |
| 20260509191517 | 88 | 248 | 0.9 | 3.5 | 0.00 | 0.00 | 0.00 | 76 | 1009.6 |
| 20260509190012 | 87 | 260 | 0.0 | 2.6 | 0.00 | 0.00 | 0.00 | 71 | 1009.7 |
| 20260509184510 | 87 | 261 | 0.0 | 2.6 | 0.00 | 0.00 | 0.00 | 73 | 1009.7 |
| 20260509183013 | 86 | 262 | 1.7 | 3.5 | 0.00 | 0.00 | 0.00 | 76 | 1010.1 |
| 20260509181504 | 85 | 262 | 0.0 | 3.5 | 0.00 | 0.00 | 0.00 | 76 | 1010.3 |
| 20260509180002 | 83 | 264 | 0.0 | 3.5 | 0.00 | 0.00 | 0.00 | 81 | 1010.6 |
| 20260509174559 | 82 | 263 | 0.9 | 3.5 | 0.00 | 0.00 | 0.00 | 83 | 1011.2 |
| 20260509173106 | 82 | 175 | 0.0 | 1.7 | 0.00 | 0.00 | 0.00 | 86 | 1011.4 |
| 20260509171556 | 82 | 175 | 0.0 | 1.7 | 0.00 | 0.00 | 0.00 | 87 | 1011.4 |
| 20260509170052 | 81 | 175 | 0.9 | 5.2 | 0.00 | 0.00 | 0.00 | 86 | 1011.4 |
| 20260509164549 | 81 | 168 | 0.9 | 2.6 | 0.00 | 0.00 | 0.00 | 87 | 1011.5 |
| 20260509163051 | 81 | 168 | 0.0 | 0.9 | 0.00 | 0.00 | 0.00 | 87 | 1011.4 |
| 20260509161555 | 81 | 167 | 0.0 | 1.7 | 0.00 | 0.00 | 0.00 | 88 | 1011.3 |
| 20260509160042 | 80 | 168 | 0.0 | 4.3 | 0.00 | 0.00 | 0.00 | 88 | 1011.3 |
| 20260509154545 | 79 | 167 | 0.0 | 2.6 | 0.00 | 0.00 | 0.00 | 88 | 1011.0 |
| 20260509153050 | 78 | 167 | 0.0 | 0.0 | 0.00 | 0.00 | 0.00 | 89 | 1010.7 |
| 20260509151530 | 77 | 130 | 0.0 | 0.0 | 0.00 | 0.00 | 0.00 | 90 | 1011.1 |
| 20260509150031 | 77 | 130 | 0.0 | 0.0 | 0.00 | 0.00 | 0.00 | 91 | 1011.2 |
| 20260509144527 | 77 | 130 | 0.0 | 0.0 | 0.00 | 0.00 | 0.00 | 92 | 1011.3 |
| 20260509143027 | 76 | 130 | 0.0 | 0.0 | 0.00 | 0.00 | 0.00 | 93 | 1011.4 |
| 20260509141533 | 76 | 129 | 0.0 | 0.0 | 0.00 | 0.00 | 0.00 | 94 | 1011.5 |
| 20260509140021 | 76 | 129 | 0.0 | 0.0 | 0.00 | 0.00 | 0.00 | 95 | 1011.3 |
| 20260509134518 | 75 | 129 | 0.0 | 0.0 | 0.00 | 0.00 | 0.00 | 95 | 1010.8 |
| 20260509133015 | 75 | 129 | 0.0 | 0.0 | 0.00 | 0.00 | 0.00 | 95 | 1011.4 |
| 20260509131511 | 75 | 129 | 0.0 | 0.0 | 0.00 | 0.00 | 0.00 | 95 | 1011.3 |
| 20260509130012 | 75 | 129 | 0.0 | 0.0 | 0.00 | 0.00 | 0.00 | 95 | 1010.9 |
| 20260509124506 | 75 | 129 | 0.0 | 0.0 | 0.00 | 0.00 | 0.00 | 94 | 1011.2 |
| 20260509123005 | 74 | 129 | 0.0 | 0.0 | 0.00 | 0.00 | 0.00 | 94 | 1011.2 |
| 20260509121504 | 74 | 129 | 0.0 | 0.0 | 0.00 | 0.00 | 0.00 | 94 | 1011.0 |
| 20260509120101 | 74 | 129 | 0.0 | 0.0 | 0.00 | 0.00 | 0.00 | 94 | 1011.2 |
| 20260509114559 | 74 | 129 | 0.0 | 0.0 | 0.00 | 0.00 | 0.00 | 94 | 1011.1 |
| 20260509114501 | 74 | 129 | 0.0 | 0.0 | 0.00 | 0.00 | 0.00 | 94 | 1011.1 |
| 20260509113059 | 74 | 129 | 0.0 | 0.0 | 0.00 | 0.00 | 0.00 | 94 | 1011.0 |
| 20260509111559 | 74 | 129 | 0.0 | 0.0 | 0.00 | 0.00 | 0.00 | 94 | 1011.0 |
| 20260509110057 | 74 | 129 | 0.0 | 0.0 | 0.00 | 0.00 | 0.00 | 94 | 1010.6 |
| 20260509104603 | 74 | 129 | 0.0 | 0.0 | 0.00 | 0.00 | 0.00 | 94 | 1010.4 |
| 20260509103105 | 74 | 129 | 0.0 | 0.0 | 0.00 | 0.00 | 0.00 | 94 | 1010.6 |
| 20260509101613 | 74 | 129 | 0.0 | 0.0 | 0.00 | 0.00 | 0.00 | 94 | 1010.4 |
| 20260509100056 | 74 | 129 | 0.0 | 0.0 | 0.00 | 0.00 | 0.00 | 94 | 1010.4 |
| 20260509094601 | 74 | 129 | 0.0 | 0.0 | 0.00 | 0.00 | 0.00 | 94 | 1010.2 |
| 20260509093055 | 74 | 129 | 0.0 | 0.0 | 0.00 | 0.00 | 0.00 | 94 | 1010.1 |
| 20260509091555 | 74 | 129 | 0.0 | 0.0 | 0.00 | 0.00 | 0.00 | 94 | 1009.8 |
| 20260509090058 | 74 | 129 | 0.0 | 1.7 | 0.00 | 0.00 | 0.00 | 94 | 1009.9 |
| 20260509084600 | 74 | 129 | 0.0 | 0.0 | 0.00 | 0.00 | 0.00 | 93 | 1009.9 |
| 20260509083105 | 74 | 129 | 0.0 | 0.0 | 0.00 | 0.00 | 0.00 | 93 | 1010.0 |
| 20260509081548 | 74 | 129 | 0.0 | 0.0 | 0.00 | 0.00 | 0.00 | 93 | 1010.2 |
| 20260509080050 | 74 | 129 | 0.0 | 0.0 | 0.00 | 0.00 | 0.00 | 93 | 1010.3 |
| 20260509074606 | 74 | 129 | 0.0 | 0.9 | 0.00 | 0.00 | 0.00 | 93 | 1010.6 |
| 20260509073102 | 74 | 129 | 0.0 | 0.0 | 0.00 | 0.00 | 0.00 | 93 | 1010.7 |
| 20260509071552 | 74 | 129 | 0.0 | 0.9 | 0.00 | 0.00 | 0.00 | 93 | 1010.7 |
| 20260509070047 | 74 | 129 | 0.0 | 0.0 | 0.00 | 0.00 | 0.00 | 93 | 1010.7 |
| 20260509064542 | 75 | 129 | 0.0 | 0.0 | 0.00 | 0.00 | 0.00 | 93 | 1010.4 |
| 20260509063055 | 75 | 129 | 0.0 | 0.0 | 0.00 | 0.00 | 0.00 | 93 | 1010.7 |
| 20260509061541 | 75 | 129 | 0.0 | 0.0 | 0.00 | 0.00 | 0.00 | 93 | 1010.9 |
| 20260509060101 | 75 | 129 | 0.0 | 0.0 | 0.00 | 0.00 | 0.00 | 93 | 1010.9 |